Preview of NWS' New Version of Forecast
This preview is not operational and should not be used for support decisions.

Regional Weather Roundup (RWR)

Issued by National Weather Service (NWS)

                            
000
ASPQ40 PGUM 190210
RWRPQ 
WEATHER ROUNDUP FOR THE MARIANAS AND MICRONESIA
NATIONAL WEATHER SERVICE TIYAN GU
1200 PM CHST FRI APR 19 2019

GUZ001>004-190300-
MARIANA ISLANDS-
  
CITY           SKY/WX    TMP DP  RH WIND       PRES   REMARKS
GUAM AIRPORT   SUNNY     88  66  48 E14       29.91F HX  90           
ANDERSEN AFB   MOSUNNY   86  72  62 E12       29.92  HX  92           
ROTA AIRPORT   MOSUNNY   82  70  65 E12       29.90F                  
TINIAN AP      MOSUNNY   86  73  66 E9        29.89F HX  93           
SAIPAN AP      MOSUNNY   88  70  55 VRB7      29.91F HX  92           

$$

PMZ161-190300-
REPUBLIC OF PALAU-
  
CITY           SKY/WX    TMP DP  RH WIND       PRES   REMARKS
KOROR AP       PTSUNNY   86  77  74 NE12G17   29.84F HX  97           
KOROR WSO      NOT AVBL                                               

$$

PMZ171>174-190300-
FEDERATED STATES OF MICRONESIA-
  
CITY           SKY/WX    TMP DP  RH WIND       PRES   REMARKS
YAP AIRPORT    CLOUDY    88  75  66 E9        29.87F HX  97           
CHUUK AP       MOSUNNY   88  79  74 NE9       29.82F HX 102           
POHNPEI AP     CLOUDY    82  77  83 E12       29.83F HX  91           
POHNPEI WSO    CLOUDY    82  75  78 E9        29.85F                  
KOSRAE AP      LGT RAIN  79  77  94 SE10      29.82F                  

$$

PMZ181-190300-
REPUBLIC OF THE MARSHALL ISLANDS-
  
CITY           SKY/WX    TMP DP  RH WIND       PRES   REMARKS
KWAJALEIN AP   MOSUNNY   84  73  70 E15       29.83F HX  91           
MAJURO AP      NOT AVBL                                               
MAJURO WSO     CLOUDY    86  77  74 NE8       29.78F HX  97           

$$